Weather History for Angel Fire, NM

Change the Weather History Date:

Sunday, November 4, 2012

  Actual Average (KSKX) Record (KSKX)
Temperature  
Mean Temperature 34 °F -  
Max Temperature 59 °F 51 °F 66 °F (2007)
Min Temperature 9 °F 23 °F 17 °F (1999)
Degree Days  
Heating Degree Days 31    
Moisture  
Dew Point 1 °F    
Average Humidity 40    
Maximum Humidity 76    
Minimum Humidity 4    
Precipitation  
Precipitation 0.00 in - - ()
Sea Level Pressure  
Sea Level Pressure 30.36 in    
Wind  
Wind Speed 2 mph (WSW)    
Max Wind Speed 20 mph    
Max Gust Speed 28 mph    
Visibility 10 miles    
Events      
Averages and records for this station are not official NWS values.
T = Trace of Precipitation, MM = Missing Value Source: NWS Daily Summary

Daily Weather History Graph

Daily Weather History Graph

Search for Another Location

Airport:

Trip Planner

Search our weather history database for the weather conditions in past years. The results will help you decide how hot, cold, wet, or windy it might be!

Date:

Astronomy

Nov. 04, 2012 Rise Set
Actual Time 6:27 AM MST 5:01 PM MST
Civil Twilight 6:00 AM MST 5:27 PM MST
Nautical Twilight 5:30 AM MST 5:58 PM MST
Astronomical Twilight 5:00 AM MST 6:28 PM MST
Moon 9:43 PM MST (11/4) 11:11 AM MST (11/4)
Length of Visible Light 11h 26m
Length of Day
10h 33m
Waning Gibbous, 71% of the Moon is Illuminated
Nov 4
Waning Gibbous
Nov 6
Last Quarter
Nov 13
New
Nov 20
First Quarter
Nov 28
Full

Hourly Weather History & Observations

Time (MST) Temp. Windchill Dew Point Humidity Pressure Visibility Wind Dir Wind Speed Gust Speed Precip Events Conditions
12:15 AM 19.9 °F - 8.2 °F 61% 30.35 in 10.0 mi Calm Calm - N/A   Clear
12:35 AM 16.2 °F - 6.8 °F 67% 30.35 in 10.0 mi Calm Calm - N/A   Clear
12:55 AM 16.2 °F - 7.3 °F 68% 30.36 in 10.0 mi Calm Calm - N/A   Clear
1:15 AM 16.0 °F - 7.0 °F 68% 30.36 in 10.0 mi Calm Calm - N/A   Clear
1:35 AM 14.0 °F - 5.9 °F 70% 30.35 in 10.0 mi Calm Calm - N/A   Clear
1:55 AM 15.4 °F - 7.5 °F 71% 30.36 in 10.0 mi Calm Calm - N/A   Clear
1:15 AM 12.7 °F - 4.3 °F 69% 30.36 in 10.0 mi Calm Calm - N/A   Clear
1:35 AM 14.4 °F - 7.0 °F 73% 30.36 in 10.0 mi Calm Calm - N/A   Clear
1:55 AM 12.2 °F - 4.5 °F 71% 30.37 in 10.0 mi Calm Calm - N/A   Clear
2:15 AM 13.1 °F - 5.9 °F 73% 30.37 in 10.0 mi Calm Calm - N/A   Clear
2:35 AM 12.6 °F - 5.4 °F 73% 30.37 in 10.0 mi Calm Calm - N/A   Clear
2:55 AM 13.5 °F - 5.9 °F 72% 30.36 in 10.0 mi Calm Calm - N/A   Clear
3:15 AM 11.1 °F - 4.3 °F 74% 30.36 in 10.0 mi Calm Calm - N/A   Clear
3:35 AM 12.9 °F - 5.7 °F 73% 30.35 in 10.0 mi Calm Calm - N/A   Clear
3:55 AM 11.8 °F - 3.7 °F 70% 30.36 in 10.0 mi Calm Calm - N/A   Clear
4:15 AM 12.7 °F - 5.7 °F 74% 30.37 in 10.0 mi Calm Calm - N/A   Clear
4:35 AM 12.6 °F - 5.2 °F 72% 30.37 in 10.0 mi Calm Calm - N/A   Clear
4:55 AM 9.3 °F - 1.9 °F 72% 30.37 in 10.0 mi Calm Calm - N/A   Clear
5:15 AM 10.4 °F - 3.7 °F 74% 30.37 in 10.0 mi Calm Calm - N/A   Clear
5:35 AM 11.1 °F - 4.6 °F 75% 30.36 in 10.0 mi Calm Calm - N/A   Clear
5:55 AM 11.8 °F - 4.8 °F 73% 30.37 in 10.0 mi Calm Calm - N/A   Clear
6:15 AM 9.7 °F - 3.6 °F 76% 30.37 in 10.0 mi Calm Calm - N/A   Clear
6:35 AM 11.7 °F - 4.5 °F 73% 30.38 in 10.0 mi Calm Calm - N/A   Clear
6:55 AM 10.0 °F - 3.4 °F 74% 30.39 in 10.0 mi Calm Calm - N/A   Clear
7:15 AM 13.1 °F - 5.4 °F 71% 30.39 in 10.0 mi Calm Calm - N/A   Clear
7:35 AM 17.6 °F - 9.0 °F 69% 30.39 in 10.0 mi Calm Calm - N/A   Clear
7:55 AM 23.9 °F - 13.5 °F 64% 30.40 in 10.0 mi Calm Calm - N/A   Clear
8:15 AM 27.5 °F - 14.4 °F 58% 30.40 in 10.0 mi Calm Calm - N/A   Clear
8:35 AM 32.0 °F - 14.0 °F 48% 30.40 in 10.0 mi Calm Calm - N/A   Clear
8:55 AM 34.3 °F - 13.1 °F 42% 30.40 in 10.0 mi Calm Calm - N/A   Clear
9:15 AM 37.6 °F - 12.0 °F 35% 30.39 in 10.0 mi Calm Calm - N/A   Clear
9:35 AM 43.0 °F - 10.9 °F 27% 30.38 in 10.0 mi Calm Calm - N/A   Clear
9:55 AM 49.1 °F - 5.4 °F 17% 30.38 in 10.0 mi Calm Calm - N/A   Clear
10:15 AM 51.8 °F - 1.8 °F 13% 30.37 in 10.0 mi WSW 10.4 mph 16.1 mph N/A   Clear
10:35 AM 53.8 °F - -1.7 °F 10% 30.37 in 10.0 mi West 15.0 mph 21.9 mph N/A   Clear
10:55 AM 54.5 °F - -2.7 °F 10% 30.37 in 10.0 mi West 16.1 mph - N/A   Clear
11:15 AM 54.7 °F - -2.9 °F 9% 30.35 in 10.0 mi West 10.4 mph 16.1 mph N/A   Clear
11:35 AM 55.2 °F - -3.5 °F 9% 30.35 in 10.0 mi WSW 15.0 mph - N/A   Clear
11:55 AM 55.9 °F - -3.8 °F 9% 30.33 in 10.0 mi WSW 13.8 mph 17.3 mph N/A   Clear
12:15 PM 56.3 °F - -4.4 °F 8% 30.33 in 10.0 mi West 16.1 mph - N/A   Clear
12:35 PM 56.8 °F - -4.4 °F 8% 30.32 in 10.0 mi West 12.7 mph - N/A   Clear
12:55 PM 58.5 °F - -8.7 °F 6% 30.31 in 10.0 mi West 11.5 mph 18.4 mph N/A   Clear
1:15 PM 59.2 °F - -13.7 °F 5% 30.31 in 10.0 mi WSW 17.3 mph 25.3 mph N/A   Clear
1:35 PM 59.5 °F - -15.3 °F 4% 30.30 in 10.0 mi WSW 19.6 mph 27.6 mph N/A   Clear
1:55 PM 58.1 °F - -17.1 °F 4% 30.30 in 10.0 mi WSW 16.1 mph 24.2 mph N/A   Clear
2:15 PM 56.5 °F - -17.1 °F 4% 30.31 in 10.0 mi WSW 17.3 mph 21.9 mph N/A   Clear
2:35 PM 55.2 °F - -18.0 °F 4% 30.31 in 10.0 mi West 17.3 mph - N/A   Clear
2:55 PM 54.9 °F - -17.5 °F 5% 30.32 in 10.0 mi West 15.0 mph 19.6 mph N/A   Clear
3:15 PM 54.3 °F - -17.5 °F 5% 30.32 in 10.0 mi WSW 8.1 mph - N/A   Clear
3:35 PM 54.5 °F - -17.3 °F 5% 30.32 in 10.0 mi SW 3.5 mph - N/A   Clear
3:55 PM 52.5 °F - -13.9 °F 6% 30.32 in 10.0 mi Calm Calm - N/A   Clear
4:15 PM 53.1 °F - -8.0 °F 8% 30.33 in 10.0 mi NW 4.6 mph - N/A   Clear
4:35 PM 52.5 °F - -7.8 °F 8% 30.33 in 10.0 mi WSW 5.8 mph - N/A   Clear
4:55 PM 46.2 °F 43.3 °F -3.3 °F 13% 30.33 in 10.0 mi West 5.8 mph - N/A   Clear
5:15 PM 41.2 °F 37.3 °F -0.4 °F 18% 30.34 in 10.0 mi WNW 5.8 mph - N/A   Clear
5:35 PM 43.5 °F - -2.2 °F 15% 30.35 in 10.0 mi Calm Calm - N/A   Clear
5:55 PM 38.8 °F 36.5 °F -0.9 °F 19% 30.36 in 10.0 mi WNW 3.5 mph - N/A   Clear
6:15 PM 37.0 °F - -0.0 °F 21% 30.37 in 10.0 mi Calm Calm - N/A   Clear
6:35 PM 34.2 °F - 0.5 °F 24% 30.38 in 10.0 mi Calm Calm - N/A   Clear
6:55 PM 33.8 °F - 0.7 °F 25% 30.38 in 10.0 mi Calm Calm - N/A   Clear
7:15 PM 30.0 °F - 1.9 °F 30% 30.39 in 10.0 mi Calm Calm - N/A   Clear
7:35 PM 27.7 °F - 1.2 °F 32% 30.39 in 10.0 mi Calm Calm - N/A   Clear
7:55 PM 27.3 °F - 1.6 °F 33% 30.40 in 10.0 mi Calm Calm - N/A   Clear
8:15 PM 25.7 °F 20.1 °F 2.7 °F 37% 30.40 in 10.0 mi SSE 4.6 mph - N/A   Clear
8:35 PM 25.2 °F - 3.0 °F 39% 30.41 in 10.0 mi Calm Calm - N/A   Clear
8:55 PM 25.5 °F - 2.7 °F 37% 30.41 in 10.0 mi Calm Calm - N/A   Clear
9:15 PM 23.5 °F 16.4 °F 3.0 °F 41% 30.41 in 10.0 mi SSE 5.8 mph - N/A   Clear
9:35 PM 25.3 °F - 4.5 °F 41% 30.41 in 10.0 mi Calm Calm - N/A   Clear
9:55 PM 24.4 °F - 3.7 °F 41% 30.41 in 10.0 mi Calm Calm - N/A   Clear
10:15 PM 23.0 °F 18.4 °F 5.2 °F 47% 30.41 in 10.0 mi SE 3.5 mph - N/A   Clear
10:35 PM 23.9 °F - 4.1 °F 43% 30.41 in 10.0 mi Calm Calm - N/A   Clear
10:55 PM 20.1 °F - 3.0 °F 48% 30.41 in 10.0 mi Calm Calm - N/A   Clear